THY64 LTFM-VTBS

Flight info

Callsign THY64
Flight time N/A
Altitude 31000
Route OSMEV DCT ABSAX DCT RERVA DCT ML23 DCT GULMO DCT TOLUN DCT REBLO/N0492F330 DCT ABROD DCT LEMOD DCT DI A466 SULOM M890 CHG/N0493F350 M890 LKN DCT CEA DCT IGONI DCT WILLA WILLA1C
Aircraft B77W/H-SDE1E2E3FGHIJ2J3J4J5M1RWXY/LB1D1

Departure

Time 2026-05-04 21:01
Airport İstanbul Airport (LTFM)

Arrival

Time N/A
Airport Suvarnabhumi Airport (VTBS)
Time Latitude Longitude Altitude Speed Heading
2026-05-04 20:37 41.26554 28.73496 318 ft 0 kts 71°
2026-05-04 20:51 41.26549 28.73480 317 ft 2 kts 68°
2026-05-04 20:51 41.26543 28.73460 317 ft 2 kts 65°
2026-05-04 20:52 41.26536 28.73441 316 ft 2 kts 59°
2026-05-04 20:52 41.26526 28.73422 314 ft 2 kts 49°
2026-05-04 20:52 41.26514 28.73407 316 ft 2 kts 29°
2026-05-04 20:52 41.26499 28.73400 318 ft 2 kts
2026-05-04 20:53 41.26484 28.73402 316 ft 1 kts 343°
2026-05-04 20:53 41.26481 28.73403 315 ft 0 kts 342°
2026-05-04 20:57 41.26482 28.73403 315 ft 1 kts 342°
2026-05-04 20:58 41.26518 28.73389 318 ft 10 kts 345°
2026-05-04 20:58 41.26590 28.73327 318 ft 15 kts 294°
2026-05-04 20:58 41.26598 28.73230 317 ft 14 kts 270°
2026-05-04 20:58 41.26597 28.73047 318 ft 4 kts 272°
2026-05-04 20:59 41.26599 28.72994 315 ft 8 kts 268°
2026-05-04 20:59 41.26595 28.72860 316 ft 19 kts 269°
2026-05-04 20:59 41.26592 28.72645 315 ft 29 kts 270°
2026-05-04 20:59 41.26635 28.72520 317 ft 13 kts 345°
2026-05-04 21:00 41.26704 28.72516 317 ft 1 kts 360°
2026-05-04 21:00 41.26712 28.72516 316 ft 1 kts 360°
2026-05-04 21:00 41.26859 28.72513 312 ft 56 kts 359°
2026-05-04 21:00 41.27520 28.72499 292 ft 132 kts 359°
2026-05-04 21:01 41.28661 28.72446 354 ft 187 kts 358°
2026-05-04 21:01 41.30021 28.72477 823 ft 199 kts 359°
2026-05-04 21:01 41.31332 28.72490 1815 ft 183 kts 359°
2026-05-04 21:01 41.32618 28.72496 2248 ft 193 kts 360°
2026-05-04 21:02 41.34024 28.72507 2396 ft 212 kts 360°
2026-05-04 21:02 41.35560 28.72520 2606 ft 228 kts
2026-05-04 21:02 41.37175 28.72536 3071 ft 235 kts
2026-05-04 21:02 41.38803 28.72281 3482 ft 241 kts 340°
2026-05-04 21:03 41.40278 28.71241 3928 ft 245 kts 334°
2026-05-04 21:03 41.41809 28.70206 4511 ft 247 kts 338°
2026-05-04 21:03 41.43362 28.69228 5208 ft 247 kts 339°
2026-05-04 21:03 41.44921 28.68248 5835 ft 248 kts 339°
2026-05-04 21:04 41.46485 28.67258 6484 ft 250 kts 339°
2026-05-04 21:04 41.48056 28.66259 7069 ft 252 kts 339°
2026-05-04 21:04 41.49646 28.65245 7626 ft 255 kts 339°
2026-05-04 21:04 41.51254 28.64217 8187 ft 257 kts 339°
2026-05-04 21:05 41.52876 28.63179 8746 ft 259 kts 339°
2026-05-04 21:05 41.54510 28.62155 9304 ft 258 kts 344°
2026-05-04 21:05 41.56255 28.61787 9605 ft 257 kts 11°
2026-05-04 21:05 41.57919 28.62592 10121 ft 256 kts 29°
2026-05-04 21:06 41.59394 28.64021 10363 ft 272 kts 43°
2026-05-04 21:06 41.60593 28.66082 10502 ft 291 kts 52°
2026-05-04 21:06 41.61711 28.68453 10637 ft 310 kts 54°
2026-05-04 21:06 41.62854 28.70955 10791 ft 328 kts 54°
2026-05-04 21:07 41.64088 28.73635 11161 ft 339 kts 54°
2026-05-04 21:07 41.65347 28.76338 11702 ft 346 kts 54°
2026-05-04 21:07 41.66622 28.79042 12350 ft 350 kts 54°
2026-05-04 21:07 41.67933 28.81801 13065 ft 353 kts 54°
2026-05-04 21:08 41.69261 28.84581 13751 ft 357 kts 54°
2026-05-04 21:08 41.70609 28.87395 14053 ft 362 kts 54°
2026-05-04 21:08 41.71970 28.90238 14030 ft 361 kts 54°
2026-05-04 21:08 41.73320 28.93067 14026 ft 360 kts 55°
2026-05-04 21:09 41.74533 28.96025 14278 ft 366 kts 61°
2026-05-04 21:09 41.75599 28.99132 14941 ft 368 kts 62°
2026-05-04 21:09 41.76632 29.02270 15651 ft 369 kts 63°
2026-05-04 21:09 41.77674 29.05425 16298 ft 371 kts 62°
2026-05-04 21:10 41.78736 29.08593 16898 ft 375 kts 62°
2026-05-04 21:10 41.79819 29.11788 17501 ft 378 kts 62°
2026-05-04 21:10 41.80918 29.15005 18109 ft 381 kts 62°
2026-05-04 21:10 41.82035 29.18259 18673 ft 384 kts 62°
2026-05-04 21:11 41.83153 29.21517 19227 ft 386 kts 62°
2026-05-04 21:11 41.84280 29.24802 19769 ft 389 kts 62°
2026-05-04 21:11 41.85414 29.28107 20303 ft 391 kts 62°
2026-05-04 21:11 41.86551 29.31430 20828 ft 394 kts 62°
2026-05-04 21:12 41.87698 29.34782 21324 ft 397 kts 61°
2026-05-04 21:12 41.88852 29.38159 21825 ft 399 kts 61°
2026-05-04 21:12 41.90014 29.41562 22343 ft 402 kts 61°
2026-05-04 21:12 41.91322 29.44831 22684 ft 396 kts 51°
2026-05-04 21:13 41.93147 29.47614 22933 ft 399 kts 43°
2026-05-04 21:13 41.95061 29.50265 23422 ft 401 kts 44°
2026-05-04 21:13 41.96937 29.53058 23891 ft 403 kts 46°
2026-05-04 21:13 41.98785 29.55897 24320 ft 405 kts 46°
2026-05-04 21:14 42.00641 29.58761 24700 ft 407 kts 46°
2026-05-04 21:14 42.02512 29.61641 25046 ft 411 kts 46°
2026-05-04 21:14 42.03768 29.63614 25249 ft 410 kts 49°
2026-05-04 21:14 42.05209 29.66929 25334 ft 425 kts 66°
2026-05-04 21:15 42.05897 29.70845 25643 ft 437 kts 78°
2026-05-04 21:15 42.05906 29.74962 26091 ft 444 kts 89°
2026-05-04 21:15 42.05564 29.79113 26420 ft 448 kts 90°
2026-05-04 21:15 42.05218 29.83290 26708 ft 451 kts 90°
2026-05-04 21:16 42.04887 29.87504 27034 ft 454 kts 90°
2026-05-04 21:16 42.04571 29.91740 27394 ft 455 kts 90°
2026-05-04 21:16 42.04265 29.95992 27744 ft 457 kts 89°
2026-05-04 21:16 42.03963 30.00262 28065 ft 459 kts 89°
2026-05-04 21:17 42.03661 30.04540 28370 ft 461 kts 89°
2026-05-04 21:17 42.03355 30.08839 28660 ft 463 kts 89°
2026-05-04 21:17 42.03045 30.13162 28934 ft 465 kts 89°
2026-05-04 21:17 42.02733 30.17498 29207 ft 467 kts 89°
2026-05-04 21:18 42.02422 30.21854 29473 ft 469 kts 89°
2026-05-04 21:18 42.02110 30.26225 29764 ft 469 kts 89°
2026-05-04 21:18 42.01803 30.30527 30117 ft 468 kts 89°
2026-05-04 21:18 42.01487 30.34927 30474 ft 466 kts 89°
2026-05-04 21:19 42.01180 30.39199 30806 ft 464 kts 89°
2026-05-04 21:19 42.00867 30.43542 30927 ft 467 kts 89°
2026-05-04 21:19 42.00244 30.52237 30970 ft 466 kts 89°
2026-05-04 21:20 41.99619 30.60858 30972 ft 461 kts 89°
2026-05-04 21:20 41.98995 30.69430 30973 ft 461 kts 89°
2026-05-04 21:21 41.98368 30.78010 30977 ft 461 kts 89°
2026-05-04 21:21 41.97742 30.86587 30972 ft 461 kts 89°
2026-05-04 21:22 41.97115 30.95158 30968 ft 461 kts 89°
2026-05-04 21:22 41.96488 31.03720 30973 ft 460 kts 89°
2026-05-04 21:23 41.95861 31.12278 30955 ft 460 kts 89°
2026-05-04 21:23 41.95232 31.20840 30959 ft 460 kts 89°
2026-05-04 21:24 41.94603 31.29383 30945 ft 459 kts 89°
2026-05-04 21:24 41.93978 31.37864 30947 ft 459 kts 89°
2026-05-04 21:25 41.93348 31.46401 30940 ft 459 kts 89°
2026-05-04 21:25 41.92717 31.54926 30939 ft 459 kts 89°
2026-05-04 21:26 41.92087 31.63448 30938 ft 459 kts 89°
2026-05-04 21:26 41.91456 31.71980 30936 ft 459 kts 89°
2026-05-04 21:27 41.90824 31.80504 30933 ft 459 kts 89°
2026-05-04 21:27 41.90192 31.89041 30929 ft 459 kts 89°
2026-05-04 21:28 41.89564 31.97513 30932 ft 459 kts 89°
2026-05-04 21:28 41.88932 32.06022 30929 ft 458 kts 89°
2026-05-04 21:29 41.88298 32.14533 30926 ft 457 kts 89°
2026-05-04 21:29 41.87664 32.23013 30931 ft 456 kts 89°
2026-05-04 21:30 41.87033 32.31419 30930 ft 455 kts 89°
2026-05-04 21:30 41.86396 32.39866 30931 ft 454 kts 89°
2026-05-04 21:31 41.86528 32.52359 30947 ft 443 kts 72°
2026-05-04 21:32 41.88540 32.60090 30933 ft 435 kts 59°
2026-05-04 21:32 41.91332 32.67309 30938 ft 437 kts 59°
2026-05-04 21:33 41.94082 32.74599 30938 ft 437 kts 60°
2026-05-04 21:33 41.96788 32.81855 30936 ft 437 kts 60°
2026-05-04 21:34 41.99500 32.89159 30936 ft 436 kts 60°
2026-05-04 21:34 42.02199 32.96447 30939 ft 435 kts 60°
2026-05-04 21:35 42.04890 33.03729 30940 ft 434 kts 60°
2026-05-04 21:35 42.07574 33.11009 30939 ft 434 kts 60°
2026-05-04 21:36 42.10250 33.18288 30938 ft 433 kts 60°
2026-05-04 21:36 42.12905 33.25526 30943 ft 434 kts 61°
2026-05-04 21:37 42.15573 33.32818 30938 ft 434 kts 61°
2026-05-04 21:37 42.18236 33.40118 30937 ft 434 kts 61°
2026-05-04 21:38 42.20899 33.47435 30936 ft 434 kts 61°
2026-05-04 21:38 42.23555 33.54754 30936 ft 435 kts 62°
2026-05-04 21:39 42.26212 33.62092 30934 ft 435 kts 62°
2026-05-04 21:39 42.28863 33.69434 30932 ft 435 kts 62°
2026-05-04 21:40 42.31514 33.76794 30938 ft 435 kts 62°
2026-05-04 21:40 42.34088 33.84128 30917 ft 433 kts 68°
2026-05-04 21:40 42.34772 33.88102 30941 ft 439 kts 82°
2026-05-04 21:41 42.34787 33.92276 30943 ft 446 kts 90°
2026-05-04 21:41 42.34274 33.96443 30929 ft 454 kts 101°
2026-05-04 21:41 42.33235 34.00498 30954 ft 458 kts 105°
2026-05-04 21:42 42.31000 34.08596 30948 ft 462 kts 105°
2026-05-04 21:42 42.28790 34.16766 30937 ft 464 kts 105°
2026-05-04 21:43 42.26605 34.24983 30941 ft 465 kts 105°
2026-05-04 21:43 42.24437 34.33164 30941 ft 466 kts 105°
2026-05-04 21:44 42.22248 34.41396 30939 ft 466 kts 106°
2026-05-04 21:44 42.20053 34.49622 30942 ft 466 kts 106°
2026-05-04 21:45 42.17847 34.57858 30942 ft 466 kts 107°
2026-05-04 21:45 42.15636 34.66085 30944 ft 467 kts 107°
2026-05-04 21:46 42.13415 34.74321 30950 ft 468 kts 107°
2026-05-04 21:46 42.11186 34.82560 30944 ft 469 kts 107°
2026-05-04 21:47 42.08961 34.90758 30940 ft 469 kts 108°
2026-05-04 21:47 42.06713 34.99017 30949 ft 470 kts 108°
2026-05-04 21:48 42.04575 35.07322 30941 ft 469 kts 102°
2026-05-04 21:48 42.03502 35.15947 30951 ft 467 kts 93°
2026-05-04 21:49 42.03372 35.24679 30945 ft 467 kts 90°
2026-05-04 21:49 42.03277 35.33421 30947 ft 467 kts 90°
2026-05-04 21:50 42.03151 35.42158 30937 ft 468 kts 90°
2026-05-04 21:50 42.03012 35.50911 30944 ft 468 kts 91°
2026-05-04 21:51 42.02867 35.59666 30937 ft 468 kts 91°
2026-05-04 21:51 42.02717 35.68426 30935 ft 468 kts 91°
2026-05-04 21:52 42.02561 35.77141 30937 ft 468 kts 91°
2026-05-04 21:52 42.02397 35.85894 30940 ft 468 kts 91°
2026-05-04 21:53 42.02227 35.94658 30933 ft 469 kts 91°
2026-05-04 21:53 42.02050 36.03418 30938 ft 469 kts 91°
2026-05-04 21:54 42.01866 36.12194 30934 ft 469 kts 91°
2026-05-04 21:54 42.01675 36.20965 30936 ft 469 kts 92°
2026-05-04 21:55 42.01478 36.29751 30935 ft 470 kts 92°
2026-05-04 21:55 42.01273 36.38543 30934 ft 470 kts 92°
2026-05-04 21:56 42.01064 36.47285 30932 ft 471 kts 92°
2026-05-04 21:56 42.00846 36.56098 30932 ft 471 kts 92°
2026-05-04 21:57 42.00622 36.64916 30932 ft 472 kts 92°
2026-05-04 21:57 41.99824 36.73663 30922 ft 472 kts 104°
2026-05-04 21:58 41.97766 36.82013 30929 ft 472 kts 113°
2026-05-04 21:58 41.97341 36.83321 30934 ft 472 kts 113°